Location: Unspecified
(41.1637°N, 24.2901°E)
Time: 02:09:47
(UTC+01:00)

ISS - Pass Details

Date: 16 January 2026
Orbit: 413 x 424 km, 51.6° (Epoch: 16 January)

Event Time Altitude Azimuth Distance (km) Brightness Sun altitude
Rises 17:49:49 0° 269° (W) 2,345 1.7 -16.7°
Reaches altitude 10° 17:52:12 10° 285° (WNW) 1,486 0.0 -17.1°
Maximum altitude 17:54:55 23° 339° (NNW) 943 -1.9 -17.6°
Enters shadow 17:55:51 20° 5° (N) 1,023 -2.0 -17.8°
